N515CC KDEN-KASE

Flight info

Callsign N515CC
Flight time N/A
Altitude 24000
Route CONNR8 CONNR MMARY MMARY1
Aircraft CL60/M-SADE3FGHIJ3J4J7P2RWXY/HB1D1

Departure

Time 2026-05-01 13:44
Airport Denver International Airport (KDEN)

Arrival

Time N/A
Airport Aspen-Pitkin County Airport (Sardy Field) (KASE)
Time Latitude Longitude Altitude Speed Heading
2026-05-01 13:36 39.83934 -104.66487 5390 ft 0 kts
2026-05-01 13:37 39.83950 -104.66486 5390 ft 4 kts 28°
2026-05-01 13:37 39.83964 -104.66446 5391 ft 6 kts 69°
2026-05-01 13:37 39.83990 -104.66383 5395 ft 9 kts 52°
2026-05-01 13:38 39.84085 -104.66254 5398 ft 16 kts
2026-05-01 13:38 39.84230 -104.66253 5395 ft 24 kts
2026-05-01 13:38 39.84416 -104.66251 5391 ft 27 kts
2026-05-01 13:39 39.84612 -104.66248 5394 ft 28 kts
2026-05-01 13:39 39.84810 -104.66246 5398 ft 27 kts
2026-05-01 13:39 39.84995 -104.66244 5403 ft 26 kts
2026-05-01 13:39 39.85170 -104.66241 5411 ft 24 kts
2026-05-01 13:40 39.85350 -104.66239 5416 ft 27 kts
2026-05-01 13:40 39.85543 -104.66237 5423 ft 28 kts
2026-05-01 13:40 39.85751 -104.66235 5426 ft 29 kts
2026-05-01 13:40 39.85932 -104.66232 5424 ft 22 kts
2026-05-01 13:41 39.86056 -104.66231 5421 ft 9 kts
2026-05-01 13:41 39.86104 -104.66200 5420 ft 5 kts 83°
2026-05-01 13:41 39.86105 -104.66174 5419 ft 0 kts 90°
2026-05-01 13:42 39.86105 -104.66172 5419 ft 1 kts 90°
2026-05-01 13:42 39.86104 -104.66160 5419 ft 0 kts 90°
2026-05-01 13:43 39.86104 -104.66152 5418 ft 2 kts 90°
2026-05-01 13:43 39.86104 -104.66092 5416 ft 12 kts 90°
2026-05-01 13:43 39.86098 -104.66019 5413 ft 4 kts 152°
2026-05-01 13:43 39.86083 -104.66017 5414 ft 0 kts 180°
2026-05-01 13:44 39.85944 -104.66018 5415 ft 49 kts 180°
2026-05-01 13:44 39.85297 -104.66026 5411 ft 134 kts 180°
2026-05-01 13:44 39.84181 -104.66050 5724 ft 175 kts 181°
2026-05-01 13:44 39.82911 -104.66125 6385 ft 199 kts 192°
2026-05-01 13:45 39.81699 -104.67103 7027 ft 223 kts 236°
2026-05-01 13:45 39.81295 -104.69066 8058 ft 235 kts 276°
2026-05-01 13:45 39.81578 -104.71120 9277 ft 239 kts 282°
2026-05-01 13:45 39.81926 -104.73296 10091 ft 261 kts 282°
2026-05-01 13:46 39.82306 -104.75707 10782 ft 287 kts 282°
2026-05-01 13:46 39.82712 -104.78361 11479 ft 311 kts 282°
2026-05-01 13:46 39.83120 -104.81219 12170 ft 335 kts 281°
2026-05-01 13:46 39.83505 -104.84298 13015 ft 351 kts 280°
2026-05-01 13:47 39.83890 -104.87455 14030 ft 359 kts 280°
2026-05-01 13:47 39.84107 -104.90693 15072 ft 367 kts 268°
2026-05-01 13:47 39.83637 -104.93953 16073 ft 375 kts 257°
2026-05-01 13:47 39.82973 -104.97237 17000 ft 382 kts 257°
2026-05-01 13:48 39.82300 -105.00594 17899 ft 388 kts 257°
2026-05-01 13:48 39.81614 -105.04017 18773 ft 393 kts 257°
2026-05-01 13:48 39.80923 -105.07459 19613 ft 399 kts 257°
2026-05-01 13:48 39.80224 -105.10934 20474 ft 402 kts 257°
2026-05-01 13:49 39.79508 -105.14487 21336 ft 406 kts 258°
2026-05-01 13:49 39.78789 -105.18050 22103 ft 410 kts 258°
2026-05-01 13:49 39.78065 -105.21632 22844 ft 414 kts 258°
2026-05-01 13:49 39.77338 -105.25223 23540 ft 418 kts 258°
2026-05-01 13:50 39.76584 -105.28938 24038 ft 426 kts 258°
2026-05-01 13:50 39.75820 -105.32690 24200 ft 430 kts 258°
2026-05-01 13:50 39.75061 -105.36403 24221 ft 427 kts 258°
2026-05-01 13:50 39.74302 -105.40112 24209 ft 425 kts 258°
2026-05-01 13:51 39.73543 -105.43816 24208 ft 423 kts 258°
2026-05-01 13:51 39.72790 -105.47482 24217 ft 422 kts 258°
2026-05-01 13:51 39.72028 -105.51196 24201 ft 424 kts 258°
2026-05-01 13:51 39.71268 -105.54887 24187 ft 424 kts 258°
2026-05-01 13:52 39.70507 -105.58600 24170 ft 424 kts 258°
2026-05-01 13:52 39.69759 -105.62264 24151 ft 425 kts 258°
2026-05-01 13:52 39.68994 -105.66011 24144 ft 424 kts 257°
2026-05-01 13:52 39.68283 -105.69707 24139 ft 423 kts 258°
2026-05-01 13:53 39.67593 -105.73406 24144 ft 424 kts 258°
2026-05-01 13:53 39.66203 -105.80816 24149 ft 424 kts 258°
2026-05-01 13:53 39.65504 -105.84534 24145 ft 424 kts 258°
2026-05-01 13:54 39.64802 -105.88258 24155 ft 424 kts 258°
2026-05-01 13:54 39.64098 -105.91988 24154 ft 424 kts 258°
2026-05-01 13:54 39.63401 -105.95672 24152 ft 425 kts 258°
2026-05-01 13:54 39.62693 -105.99406 24158 ft 424 kts 258°
2026-05-01 13:55 39.61993 -106.03087 24156 ft 420 kts 258°
2026-05-01 13:55 39.61292 -106.06765 24159 ft 411 kts 258°
2026-05-01 13:55 39.60611 -106.10332 24000 ft 405 kts 258°
2026-05-01 13:55 39.59943 -106.13824 23549 ft 399 kts 258°
2026-05-01 13:56 39.59276 -106.17306 23048 ft 392 kts 258°
2026-05-01 13:56 39.58627 -106.20691 22557 ft 385 kts 258°
2026-05-01 13:56 39.57990 -106.24007 22069 ft 379 kts 258°
2026-05-01 13:56 39.57357 -106.27300 21571 ft 373 kts 258°
2026-05-01 13:57 39.56733 -106.30534 21084 ft 367 kts 258°
2026-05-01 13:57 39.56121 -106.33707 20603 ft 362 kts 258°
2026-05-01 13:57 39.55510 -106.36870 20124 ft 357 kts 258°
2026-05-01 13:57 39.54920 -106.39919 19663 ft 352 kts 258°
2026-05-01 13:58 39.54357 -106.43007 19195 ft 346 kts 263°
2026-05-01 13:58 39.54268 -106.46040 18767 ft 338 kts 274°
2026-05-01 13:58 39.54360 -106.49078 18377 ft 327 kts 275°
2026-05-01 13:58 39.54437 -106.51961 18044 ft 314 kts 274°
2026-05-01 13:59 39.54514 -106.54809 17379 ft 313 kts 274°
2026-05-01 13:59 39.54587 -106.57604 17068 ft 300 kts 274°
2026-05-01 13:59 39.54653 -106.60229 16885 ft 285 kts 274°
2026-05-01 13:59 39.54719 -106.62788 16552 ft 277 kts 274°
2026-05-01 14:00 39.54782 -106.65279 16270 ft 269 kts 274°
2026-05-01 14:00 39.54842 -106.67687 15963 ft 263 kts 273°
2026-05-01 14:00 39.54593 -106.70055 15606 ft 266 kts 253°
2026-05-01 14:00 39.53971 -106.72329 15227 ft 270 kts 252°
2026-05-01 14:01 39.53322 -106.74677 14732 ft 275 kts 252°
2026-05-01 14:01 39.52683 -106.77025 14359 ft 277 kts 252°
2026-05-01 14:01 39.52048 -106.79385 13888 ft 281 kts 252°
2026-05-01 14:01 39.51560 -106.81786 13669 ft 268 kts 270°
2026-05-01 14:02 39.51680 -106.84149 13672 ft 254 kts 277°
2026-05-01 14:02 39.51851 -106.86446 13631 ft 256 kts 277°
2026-05-01 14:02 39.52012 -106.88728 13636 ft 257 kts 276°
2026-05-01 14:02 39.51963 -106.91123 13453 ft 262 kts 261°
2026-05-01 14:03 39.51426 -106.93388 13291 ft 258 kts 245°
2026-05-01 14:03 39.50451 -106.95384 13129 ft 259 kts 230°
2026-05-01 14:03 39.49120 -106.96965 12963 ft 258 kts 214°
2026-05-01 14:03 39.47576 -106.98002 12822 ft 245 kts 200°
2026-05-01 14:04 39.45948 -106.98486 12651 ft 230 kts 185°
2026-05-01 14:04 39.44399 -106.98466 12511 ft 216 kts 172°
2026-05-01 14:04 39.42963 -106.98095 12360 ft 205 kts 166°
2026-05-01 14:04 39.41576 -106.97685 12212 ft 206 kts 166°
2026-05-01 14:05 39.40168 -106.97275 11945 ft 205 kts 166°
2026-05-01 14:05 39.38823 -106.96890 11640 ft 190 kts 166°
2026-05-01 14:05 39.37594 -106.96539 11460 ft 180 kts 166°
2026-05-01 14:05 39.36353 -106.96181 11189 ft 176 kts 166°
2026-05-01 14:06 39.35168 -106.95837 10956 ft 175 kts 166°
2026-05-01 14:06 39.33989 -106.95495 10675 ft 171 kts 166°
2026-05-01 14:06 39.32828 -106.95159 10416 ft 171 kts 166°
2026-05-01 14:06 39.31706 -106.94721 10128 ft 167 kts 156°
2026-05-01 14:07 39.30711 -106.93932 9862 ft 166 kts 140°
2026-05-01 14:07 39.29949 -106.92838 9602 ft 163 kts 124°
2026-05-01 14:07 39.29451 -106.91557 9348 ft 161 kts 114°
2026-05-01 14:08 39.27943 -106.89568 8865 ft 157 kts 154°
2026-05-01 14:08 39.26929 -106.89067 8642 ft 158 kts 159°
2026-05-01 14:08 39.25906 -106.88586 8416 ft 150 kts 159°
2026-05-01 14:08 39.24900 -106.88116 8165 ft 156 kts 159°
2026-05-01 14:09 39.23897 -106.87640 7900 ft 151 kts 159°
2026-05-01 14:09 39.22935 -106.87182 7735 ft 142 kts 158°
2026-05-01 14:09 39.22044 -106.86731 7887 ft 142 kts 163°
2026-05-01 14:09 39.21080 -106.86313 7987 ft 150 kts 168°
2026-05-01 14:10 39.20174 -106.85633 8152 ft 157 kts 127°
2026-05-01 14:10 39.20133 -106.84290 8260 ft 166 kts 54°
2026-05-01 14:10 39.21199 -106.83914 8440 ft 172 kts 337°
2026-05-01 14:10 39.22022 -106.85028 8637 ft 175 kts 305°
2026-05-01 14:11 39.22304 -106.86520 8848 ft 176 kts 264°
2026-05-01 14:11 39.21393 -106.89275 9626 ft 160 kts 248°
2026-05-01 14:11 39.20995 -106.90604 9915 ft 160 kts 256°
2026-05-01 14:12 39.20698 -106.91981 10191 ft 159 kts 262°
2026-05-01 14:12 39.20782 -106.93388 10400 ft 162 kts 298°
2026-05-01 14:12 39.21367 -106.94673 10569 ft 168 kts 307°
2026-05-01 14:12 39.22013 -106.95915 10829 ft 168 kts 306°
2026-05-01 14:13 39.22649 -106.97200 11074 ft 170 kts 305°
2026-05-01 14:13 39.23285 -106.98476 11353 ft 169 kts 305°
2026-05-01 14:13 39.23925 -106.99768 11614 ft 169 kts 306°
2026-05-01 14:13 39.24541 -107.01047 11865 ft 169 kts 303°
2026-05-01 14:14 39.25167 -107.02344 12118 ft 169 kts 307°
2026-05-01 14:14 39.25815 -107.03631 12351 ft 170 kts 307°
2026-05-01 14:14 39.26455 -107.04923 12585 ft 171 kts 303°
2026-05-01 14:14 39.26936 -107.06321 12819 ft 172 kts 291°
2026-05-01 14:15 39.27302 -107.07776 13070 ft 171 kts 291°
2026-05-01 14:15 39.27671 -107.09239 13306 ft 171 kts 291°
2026-05-01 14:15 39.28043 -107.10706 13534 ft 170 kts 292°
2026-05-01 14:15 39.28413 -107.12158 13757 ft 170 kts 292°
2026-05-01 14:16 39.28787 -107.13622 13963 ft 172 kts 293°
2026-05-01 14:16 39.29166 -107.15095 14086 ft 179 kts 294°
2026-05-01 14:16 39.29595 -107.16695 14069 ft 193 kts 295°
2026-05-01 14:16 39.30058 -107.18377 14082 ft 204 kts 296°
2026-05-01 14:17 39.30547 -107.20139 14079 ft 214 kts 296°
2026-05-01 14:17 39.31065 -107.22002 14094 ft 222 kts 297°
2026-05-01 14:17 39.31599 -107.23927 14095 ft 231 kts 290°
2026-05-01 14:17 39.31998 -107.25702 14071 ft 243 kts 284°
2026-05-01 14:40 39.32451 -107.27817 14084 ft 260 kts 289°
2026-05-01 14:40 39.33023 -107.30115 14070 ft 273 kts 290°
2026-05-01 14:40 39.33635 -107.32516 14081 ft 284 kts 290°
2026-05-01 14:41 39.34277 -107.35023 14058 ft 296 kts 291°
2026-05-01 14:41 39.34951 -107.37641 14066 ft 304 kts 291°
2026-05-01 14:41 39.35766 -107.40241 14073 ft 311 kts 296°
2026-05-01 14:41 39.36664 -107.42874 14068 ft 318 kts 296°
2026-05-01 14:42 39.37582 -107.45566 14059 ft 325 kts 296°
2026-05-01 14:42 39.38494 -107.48231 14061 ft 329 kts 296°
2026-05-01 14:42 39.39446 -107.50978 14080 ft 325 kts 297°
2026-05-01 14:42 39.40351 -107.53635 14066 ft 323 kts 295°
2026-05-01 14:43 39.40859 -107.56467 14076 ft 321 kts 271°
2026-05-01 14:43 39.40302 -107.59203 14075 ft 322 kts 242°
2026-05-01 14:43 39.38759 -107.61395 14046 ft 322 kts 214°
2026-05-01 14:43 39.36636 -107.62447 14047 ft 319 kts 187°
2026-05-01 14:44 39.34364 -107.62142 14063 ft 315 kts 160°
2026-05-01 14:44 39.31384 -107.58321 14067 ft 304 kts 108°
2026-05-01 14:44 39.31117 -107.55653 14062 ft 299 kts 84°
2026-05-01 14:45 39.31566 -107.52965 14041 ft 303 kts 74°
2026-05-01 14:45 39.32695 -107.47563 14057 ft 313 kts 75°
2026-05-01 14:45 39.33254 -107.44818 14064 ft 317 kts 75°
2026-05-01 14:46 39.33830 -107.42003 14063 ft 324 kts 75°
2026-05-01 14:46 39.35026 -107.36244 14071 ft 336 kts 70°
2026-05-01 14:46 39.36237 -107.33694 14072 ft 329 kts 46°
2026-05-01 14:47 39.38092 -107.32178 14130 ft 302 kts 19°
2026-05-01 14:47 39.40109 -107.31904 14126 ft 282 kts 354°
2026-05-01 14:47 39.41880 -107.32684 14118 ft 267 kts 329°
2026-05-01 14:48 39.43921 -107.36890 14037 ft 299 kts 277°
2026-05-01 14:48 39.43756 -107.39595 14039 ft 311 kts 257°
2026-05-01 14:48 39.42576 -107.45221 14060 ft 329 kts 256°
2026-05-01 14:49 39.42121 -107.47438 14058 ft 335 kts 257°